Flag for Aruba

Past Weather in Oranjestad, Aruba — Yesterday and Last 2 Weeks

Now
86 °F

Passing clouds.


Feels Like: 97 °F
Forecast: 90 / 84 °F
Wind: 23 mph from East

Location: Queen Beatrix Airport - Aruba
Current Time: Sep 30, 2020 at 3:17:42 am
Latest Report: Sep 30, 2020 at 2:00 am
Visibility: N/A
Pressure29.86 "Hg
Humidity: 75%
Dew Point: 77 °F
Location of OranjestadLocation

Past Weather in Oranjestad — Graph

°F

Oranjestad Temperature Yesterday

Maximum temperature yesterday: 93 °F (at 1:00 pm)
Minimum temperature yesterday: 84 °F (at 12:00 am)
Average temperature yesterday: 87 °F

High & Low Weather Summary for the Past Weeks

 TemperatureHumidityPressure
High93 °F (Sep 15, 1:00 pm)94% (Sep 20, 4:00 pm)29.95 "Hg (Sep 20, 4:00 pm)
Low79 °F (Sep 20, 4:00 pm)49% (Sep 29, 2:00 pm)29.71 "Hg (Sep 29, 3:00 pm)
Average86 °F74%29.85 "Hg
* Reported Sep 15 2:00 am — Sep 30 2:00 am, Oranjestad. Weather by CustomWeather, © 2020

Note: Actual official high and low records may vary slightly from our data, if they occured in-between our weather recording intervals... More about our weather records

Oranjestad Weather History for the Previous 24 Hours

Scroll right to see more
 ConditionsComfort  
Time TempWeatherWind HumidityBarometerVisibility
2:00 am
Wed, Sep 30
86 °FPassing clouds.23 mph75%29.86 "HgN/A
1:00 am86 °FPassing clouds.22 mph79%29.86 "HgN/A
12:00 am86 °FPassing clouds.25 mph75%29.86 "HgN/A
11:00 pm
Tue, Sep 29
86 °FPassing clouds.25 mph75%29.86 "HgN/A
10:00 pm86 °FPassing clouds.25 mph75%29.83 "HgN/A
9:00 pm86 °FPassing clouds.26 mph75%29.80 "HgN/A
8:00 pm86 °FPassing clouds.26 mph79%29.77 "HgN/A
7:00 pm86 °FPassing clouds.24 mph79%29.74 "HgN/A
6:00 pm88 °FPassing clouds.23 mph70%29.71 "HgN/A
5:00 pm90 °FPassing clouds.23 mph63%29.71 "HgN/A
4:00 pm90 °FPassing clouds.23 mph67%29.71 "HgN/A
3:00 pm93 °FPassing clouds.24 mph53%29.71 "HgN/A
2:00 pm93 °FPassing clouds.23 mph49%29.74 "HgN/A
1:00 pm93 °FPassing clouds.20 mph56%29.77 "HgN/A
12:00 pm91 °FPassing clouds.18 mph59%29.80 "HgN/A
11:00 am90 °FPassing clouds.24 mph63%29.83 "HgN/A
10:00 am88 °FScattered clouds.22 mph70%29.86 "HgN/A
9:00 am84 °FPassing clouds.16 mph74%29.83 "HgN/A
8:00 am84 °FScattered clouds.15 mph79%29.80 "HgN/A
7:00 am84 °FPassing clouds.14 mph79%29.80 "HgN/A
6:00 am84 °FPassing clouds.16 mph74%29.80 "HgN/A
5:00 am84 °FPassing clouds.16 mph74%29.77 "HgN/A
4:00 am84 °FPassing clouds.17 mph74%29.77 "HgN/A
3:00 am84 °FPassing clouds.13 mph74%29.77 "HgN/A
Weather by CustomWeather, © 2020

See weather overview